GW5653 Weather Reports


Display with metric or nautical units.
time (UTC)temp
F
wind
direction
speed
MPH
gust
MPH
rain 1hr
in
rain 24hr
in
rain mn
in
humidity
%
barometer
mb
20260507211356 66 190 1.0 2.0 0.00 0.01 0.01 53
20260507210853 67 224 2.0 2.0 0.00 0.01 0.01 52
20260507210350 67 152 0.0 2.0 0.00 0.01 0.01 51
20260507205847 67 123 3.0 4.0 0.00 0.01 0.01 52
20260507205343 67 221 2.0 4.0 0.00 0.01 0.01 48
20260507204840 67 206 2.0 3.0 0.00 0.01 0.01 50
20260507204337 68 197 2.0 4.0 0.00 0.01 0.01 48
20260507203835 70 163 0.0 2.0 0.00 0.01 0.01 47
20260507203333 70 170 0.0 2.0 0.00 0.01 0.01 46
20260507202828 69 161 2.0 2.0 0.00 0.01 0.01 47
20260507202325 69 167 1.0 2.0 0.00 0.01 0.01 48
20260507201820 67 143 0.0 1.0 0.00 0.01 0.01 51
20260507201316 66 231 3.0 6.0 0.00 0.01 0.01 50
20260507200813 69 194 2.0 6.0 0.00 0.01 0.01 48
20260507200309 68 104 1.0 4.0 0.00 0.01 0.01 48
20260507195805 65 175 0.0 3.0 0.00 0.01 0.01 52
20260507195305 67 260 4.0 4.0 0.00 0.01 0.01 51
20260507194800 68 225 0.0 3.0 0.00 0.01 0.01 49
20260507194255 70 244 3.0 4.0 0.00 0.01 0.01 47
20260507193752 72 162 0.0 2.0 0.00 0.01 0.01 44
20260507193249 72 136 0.0 1.0 0.00 0.01 0.01 41
20260507192745 73 238 2.0 3.0 0.00 0.01 0.01 41
20260507192242 71 137 0.0 2.0 0.00 0.01 0.01 44
20260507191738 67 228 1.0 3.0 0.00 0.01 0.01 47
20260507191235 68 128 2.0 2.0 0.00 0.01 0.01 46
20260507190732 66 161 0.0 1.0 0.00 0.01 0.01 47
20260507190231 64 199 1.0 3.0 0.00 0.01 0.01 50
20260507185729 65 279 1.0 3.0 0.00 0.01 0.01 52
20260507185225 67 163 1.0 2.0 0.00 0.01 0.01 47
20260507184723 66 95 5.0 8.0 0.00 0.01 0.01 48
20260507184221 69 108 2.0 2.0 0.00 0.01 0.01 46
20260507183717 67 180 1.0 3.0 0.00 0.01 0.01 46
20260507183214 66 45 5.0 9.0 0.00 0.01 0.01 47
20260507182711 68 146 1.0 4.0 0.00 0.01 0.01 46
20260507182206 67 111 2.0 3.0 0.00 0.01 0.01 46
20260507181703 66 84 7.0 8.0 0.00 0.01 0.01 48
20260507181200 68 194 3.0 7.0 0.00 0.01 0.01 47
20260507180656 69 120 1.0 2.0 0.00 0.01 0.01 46
20260507180153 68 169 0.0 3.0 0.00 0.01 0.01 48
20260507175649 68 251 0.0 2.0 0.00 0.01 0.01 48
20260507175146 66 170 1.0 2.0 0.00 0.01 0.01 47
20260507174643 63 165 0.0 2.0 0.00 0.01 0.01 47
20260507174142 63 96 2.0 9.0 0.00 0.01 0.01 50
20260507173638 63 75 3.0 7.0 0.00 0.01 0.01 51
20260507173135 62 99 3.0 4.0 0.00 0.01 0.01 50
20260507172631 62 86 4.0 9.0 0.00 0.01 0.01 51
20260507172129 63 89 4.0 6.0 0.00 0.01 0.01 50
20260507171624 64 84 6.0 9.0 0.00 0.01 0.01 48
20260507171121 70 109 2.0 3.0 0.00 0.01 0.01 41
20260507170618 67 185 0.0 3.0 0.00 0.01 0.01 47
20260507170115 63 98 1.0 2.0 0.00 0.01 0.01 47
20260507165611 64 53 3.0 9.0 0.00 0.01 0.01 51
20260507165107 65 103 4.0 10.0 0.00 0.01 0.01 52
20260507164603 62 145 1.0 6.0 0.00 0.01 0.01 49
20260507164100 64 31 4.0 9.0 0.00 0.01 0.01 48
20260507163558 62 90 6.0 9.0 0.00 0.01 0.01 49
20260507163056 61 160 0.0 3.0 0.00 0.01 0.01 49
20260507162555 63 89 2.0 8.0 0.00 0.01 0.01 54
20260507162053 63 130 4.0 7.0 0.00 0.01 0.01 51
20260507161549 62 165 0.0 1.0 0.00 0.01 0.01 52
20260507161046 60 109 2.0 6.0 0.00 0.01 0.01 54
20260507160542 60 53 2.0 4.0 0.00 0.01 0.01 53
20260507160038 60 179 2.0 7.0 0.00 0.01 0.01 53
20260507155534 60 69 3.0 4.0 0.00 0.01 0.01 52
20260507155031 62 66 7.0 8.0 0.00 0.01 0.01 50
20260507154528 61 175 3.0 4.0 0.00 0.01 0.01 50
20260507154025 60 59 3.0 4.0 0.00 0.01 0.01 53
20260507153522 60 70 1.0 2.0 0.00 0.01 0.01 51
20260507153018 59 255 4.0 6.0 0.00 0.01 0.01 58
20260507152514 59 92 0.0 3.0 0.00 0.01 0.01 56
20260507152010 57 89 6.0 11.0 0.00 0.01 0.01 57
20260507151507 58 69 3.0 11.0 0.00 0.01 0.01 60
20260507151004 58 59 2.0 4.0 0.00 0.01 0.01 56
20260507150500 57 74 6.0 10.0 0.00 0.01 0.01 59
20260507145956 57 83 1.0 6.0 0.00 0.01 0.01 59
20260507145452 56 49 2.0 4.0 0.00 0.01 0.01 59
20260507144950 56 79 5.0 7.0 0.00 0.01 0.01 64
20260507144446 56 92 4.0 4.0 0.00 0.01 0.01 63
20260507143943 56 91 5.0 6.0 0.00 0.01 0.01 62
20260507143441 55 65 0.0 6.0 0.00 0.01 0.01 65
20260507142937 55 97 4.0 7.0 0.00 0.01 0.01 65
20260507142433 55 79 1.0 4.0 0.00 0.01 0.01 66
20260507141931 55 148 2.0 7.0 0.00 0.01 0.01 68
20260507141426 54 72 2.0 3.0 0.00 0.01 0.01 68
20260507140923 54 85 2.0 4.0 0.00 0.01 0.01 70
20260507140420 54 146 1.0 4.0 0.00 0.01 0.01 73
20260507135918 53 52 2.0 3.0 0.00 0.01 0.01 71
20260507135414 53 109 1.0 3.0 0.00 0.01 0.01 72
20260507134912 53 66 1.0 6.0 0.00 0.01 0.01 72
20260507134408 53 141 1.0 2.0 0.00 0.01 0.01 71
20260507133904 53 72 1.0 2.0 0.00 0.01 0.01 72
20260507133400 53 144 0.0 3.0 0.00 0.01 0.01 72
20260507132859 53 93 1.0 2.0 0.00 0.01 0.01 74
20260507132355 53 40 2.0 4.0 0.00 0.01 0.01 72
20260507131852 53 94 1.0 4.0 0.00 0.01 0.01 73
20260507131348 53 74 1.0 4.0 0.00 0.01 0.01 74
20260507130845 53 117 2.0 3.0 0.00 0.01 0.01 74
20260507130342 53 74 2.0 3.0 0.00 0.01 0.01 74
20260507125842 53 124 0.0 2.0 0.00 0.01 0.01 75
20260507125338 53 12 4.0 6.0 0.00 0.01 0.01 75
20260507124836 53 65 2.0 3.0 0.00 0.01 0.01 75
20260507124332 53 60 2.0 6.0 0.00 0.01 0.01 75
20260507123831 53 54 3.0 7.0 0.00 0.01 0.01 76
20260507123327 53 55 3.0 6.0 0.00 0.01 0.01 77
20260507122823 54 54 1.0 3.0 0.00 0.01 0.01 77
20260507122319 54 11 4.0 6.0 0.00 0.01 0.01 79
20260507121815 54 100 1.0 4.0 0.00 0.01 0.01 81
20260507121311 54 68 1.0 2.0 0.00 0.01 0.01 83
20260507120808 54 171 1.0 3.0 0.00 0.01 0.01 83
20260507120304 54 354 2.0 3.0 0.00 0.01 0.01 86
20260507115801 54 153 2.0 3.0 0.00 0.01 0.01 85
20260507115256 53 90 0.0 2.0 0.00 0.01 0.01 85
20260507114752 54 97 0.0 2.0 0.00 0.01 0.01 86
20260507114250 53 171 1.0 1.0 0.00 0.01 0.01 86
20260507113747 53 148 0.0 2.0 0.00 0.01 0.01 86
20260507113244 54 37 2.0 3.0 0.00 0.01 0.01 86
20260507112742 53 158 0.0 2.0 0.00 0.01 0.01 86
20260507112238 53 132 1.0 2.0 0.00 0.01 0.01 87
20260507111736 53 120 1.0 2.0 0.00 0.01 0.01 87
20260507111232 53 136 0.0 0.0 0.00 0.01 0.01 88
20260507110728 53 165 0.0 1.0 0.00 0.01 0.01 88
20260507110225 53 164 0.0 2.0 0.00 0.01 0.01 87
20260507105722 53 100 2.0 2.0 0.00 0.01 0.01 87
20260507105218 53 217 2.0 2.0 0.00 0.01 0.01 88
20260507104716 53 165 0.0 2.0 0.00 0.01 0.01 88
20260507104212 53 120 1.0 2.0 0.00 0.01 0.01 88
20260507103708 53 168 0.0 0.0 0.00 0.01 0.01 89
20260507103204 53 186 0.0 0.0 0.00 0.01 0.01 89
20260507102701 53 168 0.0 0.0 0.00 0.01 0.01 89
20260507102158 53 203 1.0 1.0 0.00 0.01 0.01 91
20260507101653 53 142 0.0 0.0 0.00 0.01 0.01 90
20260507101149 53 148 0.0 0.0 0.00 0.01 0.01 89
20260507100647 53 169 0.0 2.0 0.00 0.01 0.01 90
20260507100145 53 130 0.0 1.0 0.00 0.01 0.01 90
20260507095643 53 155 0.0 0.0 0.00 0.01 0.01 89
20260507095139 53 181 1.0 1.0 0.00 0.01 0.01 89
20260507094635 53 194 1.0 3.0 0.00 0.01 0.01 88
20260507094132 53 188 1.0 1.0 0.00 0.01 0.01 89
20260507093629 53 150 0.0 0.0 0.00 0.01 0.01 90
20260507093128 53 151 0.0 0.0 0.00 0.01 0.01 91
20260507092624 53 171 0.0 0.0 0.00 0.01 0.01 91
20260507092121 53 126 0.0 0.0 0.00 0.01 0.01 91
20260507091618 53 159 0.0 0.0 0.00 0.01 0.01 92
20260507091114 53 157 0.0 0.0 0.00 0.01 0.01 92
20260507090610 53 163 0.0 0.0 0.00 0.01 0.01 93
20260507090107 53 164 0.0 1.0 0.00 0.01 0.01 93
20260507085604 53 180 1.0 1.0 0.00 0.01 0.01 93
20260507085100 53 212 1.0 2.0 0.00 0.01 0.01 94
20260507084557 53 167 0.0 0.0 0.00 0.01 0.01 94
20260507084054 53 157 0.0 0.0 0.00 0.01 0.01 93
20260507083550 53 157 0.0 0.0 0.00 0.01 0.01 92
20260507083048 53 157 0.0 0.0 0.00 0.01 0.01 91
20260507082544 53 157 0.0 0.0 0.00 0.01 0.01 90
20260507082041 53 175 0.0 1.0 0.00 0.01 0.01 90
20260507081536 53 169 0.0 0.0 0.00 0.01 0.01 89
20260507081034 54 215 1.0 2.0 0.00 0.01 0.01 91
20260507080529 53 175 0.0 0.0 0.00 0.01 0.01 88
20260507080026 54 158 0.0 0.0 0.00 0.01 0.01 88
20260507075521 53 127 1.0 1.0 0.00 0.01 0.01 87
20260507075018 53 160 0.0 0.0 0.00 0.01 0.01 88
20260507074514 54 172 0.0 1.0 0.00 0.01 0.01 87
20260507074013 54 148 0.0 1.0 0.00 0.01 0.01 87
20260507073509 54 170 1.0 1.0 0.00 0.01 0.01 88
20260507073006 54 134 1.0 1.0 0.00 0.01 0.01 87
20260507072503 54 142 0.0 1.0 0.00 0.01 0.01 87
20260507072000 54 99 3.0 3.0 0.00 0.01 0.01 87
20260507071457 54 106 1.0 2.0 0.00 0.01 0.01 87
20260507070954 54 79 0.0 2.0 0.00 0.01 0.01 87
20260507070451 54 212 2.0 2.0 0.00 0.01 0.01 88
20260507065948 54 72 1.0 4.0 0.00 0.01 0.01 88
20260507065444 54 95 1.0 6.0 0.00 0.01 0.01 89
20260507064942 53 84 1.0 3.0 0.00 0.01 0.01 90
20260507064440 53 318 2.0 3.0 0.00 0.01 0.01 92
20260507063937 53 244 4.0 4.0 0.00 0.01 0.01 92
20260507063434 54 61 2.0 4.0 0.00 0.01 0.01 92
20260507062931 54 133 1.0 2.0 0.00 0.01 0.01 92
20260507062429 54 34 2.0 4.0 0.00 0.01 0.01 92
20260507061926 54 37 2.0 3.0 0.00 0.01 0.01 93
20260507061424 54 106 1.0 4.0 0.00 0.01 0.01 92
20260507060922 54 65 2.0 3.0 0.00 0.01 0.01 92
20260507060418 55 77 0.0 1.0 0.00 0.01 0.01 93
20260507055915 55 211 3.0 6.0 0.07 0.01 0.01 91
20260507055410 55 188 3.0 4.0 0.07 0.01 0.01 90
20260507054907 56 136 2.0 4.0 0.00 0.00 0.00 89
20260507054403 56 154 1.0 3.0 0.00 0.00 0.00 88
20260507053901 56 72 1.0 7.0 0.00 0.00 0.00 88
20260507053358 56 58 6.0 7.0 0.00 0.00 0.00 88
20260507052857 56 139 1.0 3.0 0.00 0.00 0.00 89
20260507052354 56 159 0.0 2.0 0.00 0.00 0.00 88
20260507051851 56 85 3.0 4.0 0.00 0.00 0.00 89
20260507051349 56 99 2.0 4.0 0.00 0.00 0.00 89
20260507050845 56 72 1.0 7.0 0.00 0.00 0.00 90
20260507050342 57 60 1.0 2.0 0.00 0.00 0.00 90
20260507045839 57 65 3.0 6.0 0.00 0.00 0.00 90
20260507045335 57 82 3.0 7.0 0.00 0.00 0.00 89
20260507044832 57 46 2.0 6.0 0.00 0.00 0.00 91
20260507044329 57 216 5.0 7.0 0.00 0.00 0.00 91
20260507043825 57 175 5.0 8.0 0.00 0.00 0.00 93
20260507043321 57 69 3.0 4.0 0.00 0.00 0.00 93
20260507042818 56 265 2.0 3.0 0.00 0.00 0.00 94
20260507042314 56 101 0.0 1.0 0.00 0.00 0.00 95
20260507041811 57 156 0.0 0.0 0.00 0.00 0.00 94
20260507041307 57 241 2.0 3.0 0.00 0.00 0.00 94
20260507040805 57 137 2.0 4.0 0.00 0.00 0.00 94
20260507040300 57 57 2.0 2.0 0.00 0.00 0.00 94
20260507035756 57 107 1.0 4.0 0.00 0.19 0.19 92
20260507035252 58 94 6.0 10.0 0.07 0.19 0.19 91
20260507034750 58 93 5.0 7.0 0.07 0.19 0.19 90
20260507034246 58 53 3.0 6.0 0.00 0.18 0.18 90
20260507033745 58 81 3.0 3.0 0.00 0.18 0.18 91
20260507033242 58 198 2.0 3.0 0.00 0.18 0.18 91
20260507032739 58 202 2.0 2.0 0.00 0.18 0.18 91
20260507032235 59 221 1.0 2.0 0.00 0.18 0.18 91
20260507031732 59 77 2.0 3.0 0.00 0.18 0.18 90
20260507031229 59 51 3.0 9.0 0.00 0.18 0.18 90
20260507030725 59 111 1.0 2.0 0.00 0.18 0.18 89
20260507030223 60 70 3.0 4.0 0.00 0.18 0.18 88
20260507025720 60 63 3.0 7.0 0.00 0.18 0.18 88
20260507025217 60 30 4.0 4.0 0.00 0.18 0.18 92
20260507024715 60 321 2.0 3.0 0.00 0.18 0.18 93
20260507024212 60 250 2.0 4.0 0.00 0.18 0.18 92
20260507023707 60 69 1.0 2.0 0.00 0.18 0.18 93
20260507023205 60 131 3.0 6.0 0.00 0.18 0.18 92
20260507022702 60 162 1.0 2.0 0.00 0.18 0.18 93
20260507022158 60 204 1.0 3.0 0.00 0.18 0.18 93
20260507021654 61 149 1.0 4.0 0.00 0.18 0.18 92
20260507021149 61 129 1.0 4.0 0.05 0.18 0.18 91
20260507020648 62 287 2.0 3.0 0.07 0.17 0.17 90
20260507020144 63 110 1.0 2.0 0.07 0.17 0.17 89
20260507015642 63 199 2.0 4.0 0.00 0.16 0.16 86
20260507015139 63 49 4.0 8.0 0.00 0.16 0.16 87
20260507014636 63 61 1.0 4.0 0.00 0.16 0.16 87
20260507014132 63 255 3.0 4.0 0.00 0.16 0.16 88
20260507013629 63 295 2.0 6.0 0.00 0.16 0.16 88
20260507013126 63 198 3.0 4.0 0.00 0.16 0.16 88
20260507012623 63 62 3.0 7.0 0.00 0.16 0.16 89
20260507012118 63 139 2.0 2.0 0.00 0.16 0.16 89
20260507011617 64 218 3.0 4.0 0.00 0.16 0.16 89
20260507011113 64 135 2.0 2.0 0.00 0.16 0.16 90
20260507010608 64 48 1.0 4.0 0.00 0.16 0.16 90
20260507010104 64 133 1.0 2.0 0.00 0.16 0.16 90
20260507005602 64 16 4.0 6.0 0.00 0.16 0.16 90
20260507005057 65 104 4.0 7.0 0.00 0.16 0.16 91
20260507004554 65 66 2.0 4.0 0.00 0.16 0.16 91
20260507004052 65 83 3.0 6.0 0.00 0.16 0.16 90
20260507003548 65 91 1.0 4.0 0.00 0.16 0.16 91
20260507003043 65 99 0.0 3.0 0.00 0.16 0.16 91
20260507002540 65 203 1.0 2.0 0.00 0.16 0.16 92
20260507002036 66 160 0.0 2.0 0.00 0.16 0.16 92
20260507001532 66 120 1.0 2.0 0.00 0.16 0.16 91
20260507001030 66 79 0.0 3.0 0.00 0.16 0.16 91
20260507000526 66 172 2.0 8.0 0.00 0.16 0.16 92
20260507000023 66 144 2.0 3.0 0.00 0.16 0.16 92
20260506235519 66 192 1.0 4.0 0.00 0.16 0.16 91
20260506235015 66 353 2.0 3.0 0.00 0.16 0.16 91
20260506234513 67 148 0.0 4.0 0.00 0.16 0.16 90
20260506234010 67 86 0.0 2.0 0.00 0.16 0.16 90
20260506233506 68 77 1.0 6.0 0.00 0.16 0.16 89
20260506233003 68 55 1.0 7.0 0.00 0.16 0.16 89
20260506232459 67 68 2.0 6.0 0.00 0.16 0.16 96
20260506231955 68 210 2.0 3.0 0.00 0.16 0.16 97
20260506231452 68 178 0.0 0.0 0.00 0.16 0.16 97
20260506230950 68 191 0.0 0.0 0.00 0.16 0.16 97
20260506230446 68 192 1.0 2.0 0.00 0.16 0.16 96
20260506225942 68 175 0.0 0.0 0.00 0.16 0.16 95
20260506225440 68 175 0.0 0.0 0.00 0.16 0.16 94
20260506224937 68 171 0.0 0.0 0.00 0.16 0.16 94
20260506224434 69 171 0.0 0.0 0.00 0.16 0.16 94
20260506223930 69 136 1.0 2.0 0.00 0.16 0.16 94
20260506223426 68 157 1.0 2.0 0.00 0.16 0.16 92
20260506222924 68 167 2.0 2.0 0.00 0.16 0.16 94
20260506222420 69 183 1.0 1.0 0.00 0.16 0.16 94
20260506221917 69 185 0.0 2.0 0.00 0.16 0.16 94
20260506221414 70 178 0.0 1.0 0.00 0.16 0.16 91
20260506220912 70 178 0.0 1.0 0.00 0.16 0.16 92
20260506220407 71 171 1.0 2.0 0.00 0.16 0.16 89
20260506215904 71 219 0.0 0.0 0.00 0.16 0.16 87
20260506215400 72 241 2.0 2.0 0.00 0.16 0.16 81
20260506214856 74 239 4.0 4.0 0.00 0.16 0.16 77
20260506214353 76 149 1.0 1.0 0.00 0.16 0.16 69
20260506213851 77 151 0.0 2.0 0.00 0.16 0.16 69
20260506213348 77 141 0.0 2.0 0.00 0.16 0.16 67
20260506212845 77 162 0.0 1.0 0.00 0.16 0.16 66
20260506212341 77 163 0.0 1.0 0.00 0.16 0.16 67
20260506211836 77 187 1.0 2.0 0.00 0.16 0.16 66